sat.trackr.live / text

‹ back to catalog

STARLINK-3184

NORAD 51143 · 2022-005AR

PAYLOAD ACTIVE UNKNOWN

§ Identity

Operator
Country
US
Launch date
2022-01-19
Launch site
AFETR
Launch vehicle
Mass (kg)
RCS (m²)

Purposes: comms

External: N2YO · Heavens-Above · Gunter

§ Orbital elements

Epoch: 2026-05-25T04:38:34.276128Z

Period
95.44 min
Inclination
53.2139°
Eccentricity
0.0001238
Mean motion
15.08831992 rev/d
Perigee alt
538.9 km
Apogee alt
540.6 km
Semi-major
6,917.9 km
B*
6.1583e-7
RAAN
325.6826°
Arg perigee
89.3483°
Mean anomaly
270.7651°
Rev number
24,014

§ Raw data

STARLINK-31841 51143U 22005AR  26145.19345227 -.00000278  00000+0  61583-6 0  99902 51143  53.2139 325.6826 0001238  89.3483 270.7651 15.08831992240145

JSON: /api/v1/satellites/51143 · /tle

For live sub-satellite position, see the globe view (requires WebGL).

§ Visibility from observer

Set your observer location to see the next 7 days of passes ≥ 10°. The values pass through the URL so the page stays shareable.

No JS? Fill the form by hand. The geolocation button needs JavaScript.